• Join FlightAware (Why Join?)
  • Login
  • US Flag 
06:40PM EST


 

Airport Tracker/Info


-or-


 

Live Flight TrackerFlight Track Log ✈ N860BA ✈ 13-Jul-2014 ✈ KFAR - KCNO

Flight Track Log - Related Links

Times and Time Zones

All times are in EDT time to prevent confusion due to time zone crossing. See the N860BA flight status page for this flight to view local times or setup timezone preferences in your user account.

Time Position Orientation Groundspeed Altitude Reporting Facility
EDT Latitude Longitude Course Direction KTS MPH feet Rate Location/Type
05:36PM 46.8642 -96.9189 213° Southwest 232 267 4,500  Level Minneapolis Center
05:37PM 46.8006 -96.9728 210° Southwest 253 291 7,400 2,468 Climbing Minneapolis Center
05:38PM 46.7331 -97.0378 213° Southwest 275 316 9,600 1,984 Climbing Minneapolis Center
05:39PM 46.6644 -97.1075 215° Southwest 305 351 11,500 1,645 Climbing Minneapolis Center
05:40PM 46.5808 -97.1867 213° Southwest 339 390 13,000 1,355 Climbing Minneapolis Center
05:41PM 46.3774 -97.3614 217° Southwest  Level FlightAware Approximate
05:41PM 46.4892 -97.2747 213° Southwest 376 433 14,300  Level Minneapolis Center
05:43PM 46.3939 -97.3697 215° Southwest 396 456 15,500 1,258 Climbing Minneapolis Center
05:44PM 46.2975 -97.4694 216° Southwest 404 465 16,900 1,258 Climbing Minneapolis Center
05:45PM 46.2050 -97.5767 219° Southwest 408 470 18,100 1,161 Climbing Minneapolis Center
05:46PM 46.1489 -97.6958 236° Southwest 384 442 19,300 1,306 Climbing Minneapolis Center
05:47PM 46.0953 -97.8289 240° Southwest 384 442 20,800 1,452 Climbing Minneapolis Center
05:48PM 46.0436 -97.9594 240° Southwest 380 437 22,300 1,306 Climbing Minneapolis Center
05:49PM 45.9936 -98.0919 242° Southwest 380 437 23,500 1,161 Climbing Minneapolis Center
05:50PM 45.9400 -98.2397 242° Southwest 375 432 24,700 968 Climbing Minneapolis Center
05:51PM 45.8911 -98.3722 242° Southwest 374 430 25,500 774 Climbing Minneapolis Center
05:52PM 45.8417 -98.5103 243° Southwest 383 441 26,300 823 Climbing Minneapolis Center
05:53PM 45.7906 -98.6425 241° Southwest 383 441 27,200 823 Climbing Minneapolis Center
05:54PM 45.7297 -98.8022 241° Southwest 383 441 28,000 435 Climbing Minneapolis Center
05:55PM 45.6742 -98.9375 240° Southwest 388 447 28,100  Climbing Minneapolis Center
05:56PM 45.6178 -99.0772 240° Southwest 401 461 28,000 -48 Descending Minneapolis Center
05:57PM 45.5586 -99.2181 239° Southwest 409 471 28,000  Level Minneapolis Center
05:58PM 45.4994 -99.3608 239° Southwest 413 475 28,000  Level Minneapolis Center
05:59PM 45.4400 -99.5036 239° Southwest 417 480 28,000  Level Minneapolis Center
06:00PM 45.3667 -99.6764 239° Southwest 422 486 28,000  Level Minneapolis Center
06:01PM 45.3056 -99.8208 239° Southwest 426 490 28,000 48 Level Minneapolis Center
06:02PM 45.2461 -99.9669 240° Southwest 429 494 28,100 49 Climbing Minneapolis Center
06:03PM 45.1842 -100.1119 239° Southwest 435 501 28,100 -49 Level Minneapolis Center
06:04PM 45.1097 -100.2878 239° Southwest 438 504 28,000 -48 Descending Minneapolis Center
06:05PM 45.0486 -100.4331 239° Southwest 438 504 28,000 48 Level Minneapolis Center
06:06PM 44.9867 -100.5800 239° Southwest 438 504 28,100  Climbing Minneapolis Center
06:07PM 44.9236 -100.7264 239° Southwest 438 504 28,000 -48 Descending Minneapolis Center
06:08PM 44.8592 -100.8744 238° Southwest 440 506 28,000  Level Minneapolis Center
06:09PM 44.7944 -101.0208 238° Southwest 441 507 28,000  Level Minneapolis Center
06:10PM 44.7172 -101.1967 238° Southwest 441 507 28,000  Level Minneapolis Center
06:11PM 44.6533 -101.3433 239° Southwest 441 507 28,000  Level Minneapolis Center
06:12PM 44.5894 -101.4886 238° Southwest 441 507 28,000  Level Minneapolis Center
06:14PM 44.5261 -101.6344 239° Southwest 440 506 28,000  Level Minneapolis Center
06:14PM 44.4742 -101.7506 238° Southwest 439 505 28,000 53 Level Denver Center
06:15PM 44.3947 -101.9239 237° Southwest 440 506 28,100 48 Climbing Denver Center
06:16PM 44.3264 -102.0689 237° Southwest 443 510 28,100 -48 Level Denver Center
06:17PM 44.2608 -102.2147 238° Southwest 444 511 28,000  Descending Denver Center
06:19PM 44.1958 -102.3631 239° Southwest 445 512 28,100  Climbing Denver Center
06:20PM 44.1289 -102.5106 238° Southwest 447 514 28,000 -48 Descending Denver Center
06:21PM 44.0622 -102.6581 238° Southwest 449 517 28,000  Level Denver Center
06:22PM 43.9836 -102.8253 237° Southwest 451 519 28,000  Level Denver Center
06:23PM 43.9069 -102.9922 238° Southwest 457 526 28,000  Level Denver Center
06:24PM 43.8408 -103.1350 237° Southwest 458 527 28,000  Level Denver Center
06:25PM 43.7733 -103.2761 237° Southwest 459 528 28,000 48 Level Denver Center
06:26PM 43.6944 -103.4428 237° Southwest 461 531 28,100 48 Climbing Denver Center
06:27PM 43.6267 -103.5858 237° Southwest 461 531 28,100 -48 Level Denver Center
06:28PM 43.5469 -103.7514 236° Southwest 464 534 28,000  Descending Denver Center
06:29PM 43.4783 -103.8922 236° Southwest 464 534 28,100  Climbing Denver Center
06:30PM 43.3989 -104.0539 236° Southwest 463 533 28,000 -48 Descending Denver Center
06:31PM 43.3319 -104.1903 236° Southwest 457 526 28,000 48 Level Denver Center
06:32PM 43.2533 -104.3528 236° Southwest 457 526 28,100 48 Climbing Denver Center
06:33PM 43.1867 -104.4911 237° Southwest 457 526 28,100  Level Denver Center
06:34PM 43.1078 -104.6519 236° Southwest 457 526 28,100 -48 Level Denver Center
06:35PM 43.0403 -104.7897 236° Southwest 457 526 28,000 -48 Descending Denver Center
06:36PM 42.9525 -104.9406 232° Southwest 457 526 28,000  Level Denver Center
06:37PM 42.8756 -105.0656 230° Southwest 457 526 28,000  Level Denver Center
06:38PM 42.7942 -105.2194 234° Southwest 454 522 28,000 48 Level Denver Center
06:39PM 42.7294 -105.3514 236° Southwest 447 514 28,100  Climbing Denver Center
06:40PM 42.6564 -105.5078 238° Southwest 444 511 28,000 -48 Descending Denver Center
06:41PM 42.5936 -105.6400 237° Southwest 439 505 28,000  Level Denver Center
06:42PM 42.5200 -105.7947 237° Southwest 439 505 28,000  Level Denver Center
06:43PM 42.4544 -105.9247 236° Southwest 438 504 28,000  Level Denver Center
06:44PM 42.3767 -106.0756 235° Southwest 438 504 28,000  Level Denver Center
06:45PM 42.3106 -106.2050 235° Southwest 438 504 28,000  Level Denver Center
06:46PM 42.2306 -106.3561 234° Southwest 441 507 28,000  Level Denver Center
06:47PM 42.1633 -106.4886 236° Southwest 444 511 28,000  Level Denver Center
06:48PM 42.0797 -106.6422 234° Southwest 448 516 28,000  Level Denver Center
06:50PM 42.0097 -106.7756 235° Southwest 454 522 28,000  Level Denver Center
06:51PM 41.9400 -106.9092 235° Southwest 456 525 28,000  Level Denver Center
06:52PM 41.8561 -107.0658 234° Southwest 462 532 28,000  Level Denver Center
06:53PM 41.7850 -107.1994 235° Southwest 462 532 28,000 49 Level Denver Center
06:54PM 41.7014 -107.3547 234° Southwest 462 532 28,100  Climbing Denver Center
06:55PM 41.6294 -107.4861 234° Southwest 461 531 28,000 -48 Descending Denver Center
06:56PM 41.5469 -107.6403 234° Southwest 459 528 28,000  Level Denver Center
06:57PM 41.4761 -107.7728 235° Southwest 459 528 28,000  Level Denver Center
06:58PM 41.3903 -107.9242 233° Southwest 459 528 28,000  Level Denver Center
06:59PM 41.3192 -108.0550 234° Southwest 458 527 28,000 48 Level Denver Center
07:00PM 41.2478 -108.1842 234° Southwest 455 524 28,100  Climbing Denver Center
07:01PM 41.1628 -108.3367 234° Southwest 455 524 28,000 -49 Descending Denver Center
07:02PM 41.0897 -108.4681 234° Southwest 456 525 28,000  Level Denver Center
07:02PM 41.0406 -108.5556 233° Southwest 456 525 28,000 64 Level Salt Lake Center
07:03PM 40.9664 -108.6864 233° Southwest 457 526 28,100  Climbing Salt Lake Center
07:04PM 40.8933 -108.8175 234° Southwest 457 526 28,000 -48 Descending Salt Lake Center
07:06PM 40.8072 -108.9697 233° Southwest 458 527 28,000  Level Salt Lake Center
07:07PM 40.7344 -109.0997 234° Southwest 458 527 28,000 49 Level Salt Lake Center
07:08PM 40.6475 -109.2508 233° Southwest 458 527 28,100  Climbing Salt Lake Center
07:08PM 40.6108 -109.3183 234° Southwest 460 529 28,000 -66 Descending Denver Center
07:09PM 40.5375 -109.4478 233° Southwest 460 529 28,000 64 Level Denver Center
07:10PM 40.4972 -109.5142 231° Southwest 459 528 28,100  Climbing Salt Lake Center
07:11PM 40.4247 -109.6522 235° Southwest 460 529 28,000  Descending Salt Lake Center
07:12PM 40.3561 -109.8325 244° Southwest 459 528 28,100 48 Climbing Salt Lake Center
07:13PM 40.3006 -109.9833 244° Southwest 460 529 28,100 -48 Level Salt Lake Center
07:14PM 40.2439 -110.1361 244° Southwest 461 531 28,000 -48 Descending Salt Lake Center
07:15PM 40.1786 -110.2800 239° Southwest 461 531 28,000 48 Level Salt Lake Center
07:16PM 40.1067 -110.4236 237° Southwest 464 534 28,100  Climbing Salt Lake Center
07:17PM 40.0256 -110.5561 231° Southwest 465 535 28,000 -48 Descending Salt Lake Center
07:18PM 39.9372 -110.6822 228° Southwest 467 537 28,000  Level Salt Lake Center
07:19PM 39.8333 -110.8339 228° Southwest 467 537 28,000  Level Salt Lake Center
07:20PM 39.7500 -110.9617 230° Southwest 466 536 28,000 48 Level Salt Lake Center
07:21PM 39.6667 -111.0919 230° Southwest 466 536 28,100  Climbing Salt Lake Center
07:22PM 39.5825 -111.2211 230° Southwest 467 537 28,000 -48 Descending Salt Lake Center
07:23PM 39.4983 -111.3511 230° Southwest 468 539 28,000  Level Salt Lake Center
07:24PM 39.4142 -111.4792 230° Southwest 468 539 28,000  Level Salt Lake Center
07:25PM 39.3114 -111.6294 229° Southwest 468 539 28,000  Level Salt Lake Center
07:26PM 39.2258 -111.7547 229° Southwest 469 540 28,000  Level Salt Lake Center
07:27PM 39.1411 -111.8822 229° Southwest 469 540 28,000  Level Salt Lake Center
07:28PM 39.0539 -112.0094 229° Southwest 470 541 28,000 48 Level Salt Lake Center
07:29PM 38.9672 -112.1367 229° Southwest 471 542 28,100 48 Climbing Salt Lake Center
07:30PM 38.8619 -112.2892 228° Southwest 476 548 28,100 -48 Level Salt Lake Center
07:31PM 38.7744 -112.4164 229° Southwest 475 547 28,000  Descending Salt Lake Center
07:32PM 38.6864 -112.5422 228° Southwest 475 547 28,100  Climbing Salt Lake Center
07:33PM 38.6003 -112.6678 229° Southwest 474 545 28,000 -48 Descending Salt Lake Center
07:34PM 38.5150 -112.7919 229° Southwest 470 541 28,000  Level Salt Lake Center
07:35PM 38.4278 -112.9175 228° Southwest 470 541 28,000  Level Salt Lake Center
07:37PM 38.3161 -113.0589 225° Southwest 471 542 28,000  Level Salt Lake Center
07:38PM 38.2075 -113.1514 214° Southwest 473 544 28,000  Level Salt Lake Center
07:39PM 38.0969 -113.2358 211° Southwest 470 541 28,000 33 Level Salt Lake Center
07:41PM 37.8739 -113.4067 211° Southwest 472 543 28,100  Climbing Los Angeles Center
07:42PM 37.7397 -113.5097 211° Southwest 471 542 28,000 -46 Descending Salt Lake Center
07:43PM 37.6303 -113.5950 212° Southwest 470 541 28,000 48 Level Salt Lake Center
07:44PM 37.5208 -113.6842 213° Southwest 470 541 28,100  Climbing Salt Lake Center
07:45PM 37.4361 -113.8072 229° Southwest 467 537 28,000  Descending Los Angeles Center
07:46PM 37.3364 -113.8978 216° Southwest 452 520 28,100  Climbing Los Angeles Center
07:47PM 37.2281 -113.9786 211° Southwest 442 509 28,000 -48 Descending Los Angeles Center
07:48PM 37.1183 -114.0586 210° Southwest 451 519 28,000 48 Level Los Angeles Center
07:49PM 37.0056 -114.1297 207° Southwest 454 522 28,100 48 Climbing Los Angeles Center
07:50PM 36.8914 -114.1989 206° Southwest 454 522 28,100  Level Los Angeles Center
07:51PM 36.7525 -114.2831 206° Southwest 459 528 28,100  Level Los Angeles Center
07:52PM 36.6408 -114.3639 210° Southwest 460 529 28,100 -48 Level Los Angeles Center
07:53PM 36.5308 -114.4469 211° Southwest 460 529 28,000 -48 Descending Los Angeles Center
07:54PM 36.4206 -114.5314 212° Southwest 461 531 28,000  Level Los Angeles Center
07:55PM 36.3097 -114.6175 212° Southwest 463 533 28,000  Level Los Angeles Center
07:56PM 36.1992 -114.7025 212° Southwest 464 534 28,000  Level Los Angeles Center
07:57PM 36.0883 -114.7867 212° Southwest 464 534 28,000 48 Level Los Angeles Center
07:58PM 35.9600 -114.8997 216° Southwest 468 539 28,100  Climbing Los Angeles Center
07:59PM 35.8669 -115.0175 226° Southwest 471 542 28,000 -48 Descending Los Angeles Center
08:00PM 35.7786 -115.1394 228° Southwest 473 544 28,000  Level Los Angeles Center
08:01PM 35.6911 -115.2644 229° Southwest 475 547 28,000 48 Level Los Angeles Center
08:02PM 35.6028 -115.3881 229° Southwest 476 548 28,100  Climbing Los Angeles Center
08:03PM 35.5133 -115.5103 228° Southwest 477 549 28,000 -48 Descending Los Angeles Center
08:04PM 35.4192 -115.6389 228° Southwest 477 549 28,000  Level Los Angeles Center
08:05PM 35.3289 -115.7581 227° Southwest 477 549 28,000  Level Los Angeles Center
08:06PM 35.2386 -115.8761 227° Southwest 477 549 28,000  Level Los Angeles Center
08:07PM 35.1311 -116.0194 227° Southwest 475 547 28,000  Level Los Angeles Center
08:09PM 35.0403 -116.1372 227° Southwest 476 548 28,000  Level Los Angeles Center
08:10PM 34.9511 -116.2556 227° Southwest 475 547 28,000 -484 Level Los Angeles Center
08:11PM 34.8611 -116.3747 227° Southwest 476 548 27,000 -1,632 Descending Los Angeles Center
08:12PM 34.7650 -116.4989 227° Southwest 497 572 24,600 -1,440 Descending Los Angeles Center
08:13PM 34.6658 -116.6147 224° Southwest 495 570 24,000 -1,210 Descending Los Angeles Center
08:14PM 34.5747 -116.7389 228° Southwest 494 568 22,100 -2,468 Descending Los Angeles Center
08:15PM 34.4614 -116.8808 226° Southwest 488 562 18,900 -3,290 Descending Los Angeles Center
08:16PM 34.3672 -116.9886 223° Southwest 467 537 15,300 -3,194 Descending Los Angeles Center
08:17PM 34.2822 -117.0847 223° Southwest 423 487 12,300 -1,935 Descending Los Angeles Center
08:18PM 34.2031 -117.1761 224° Southwest 355 409 11,300 -1,488 Descending Los Angeles Center
08:19PM 34.1425 -117.2256 214° Southwest 318 366 9,200 -2,064 Descending Los Angeles Center
08:20PM 34.0614 -117.2869 212° Southwest 283 326 7,000 -1,597 Descending Los Angeles Center
08:21PM 34.0025 -117.3353 214° Southwest 260 299 5,900 -871 Descending Los Angeles Center
08:22PM 33.9744 -117.4000 242° Southwest 231 266 5,200 -864 Descending Los Angeles Center
08:23PM 33.9667 -117.4833 264° West 211 243 4,100 -1,256 Descending Southern California TRACON
08:24PM 33.9667 -117.5500 270° West 162 186 2,500 -1,333 Descending Southern California TRACON
08:25PM 33.9667 -117.6000 270° West 113 130 1,300 -900 Descending Southern California TRACON
08:26PM 33.9833 -117.6333 301° West 115 132 700 -600 Descending Southern California TRACON
08:28PM 33.9748 -117.6365 253° West  Level Estimated
08:35PM 33.9748 -117.6365 253° West  Level Estimated